User: anonymous   Login
Location: Gairloch Mountain Observatory
(46.1383°N, 60.9640°W)
Time: 13:24:19
(UTC-03:00)
Language:

CENTAUR R/B - Orbit

View from above orbital plane
View from above orbital plane
View from above satellite
View from above satellite

Ground track
Ground track

The orbit data is extracted from the following two-line orbital elements,

1 26906U 01040B   16125.75590477 0.00000000  00000-0  00000-0 0    00
2 26906  63.4595 300.0714 0318000 342.4713  17.5287 13.43986139    05
Epoch (UTC): 04 May 2016 18:08:30
Eccentricity: 0.0318000
inclination: 63.4595°
perigee height: 857 km
apogee height: 1332 km
right ascension of ascending node: 300.0714°
argument of perigee: 342.4713°
revolutions per day: 13.43986139
mean anomaly at epoch: 17.5287°
orbit number at epoch: 0

The dashed part of the orbit path shows where the satellite is in the earth's shadow,  

DLR